Weather Roundup
Issued by NWS Chicago, IL

Home | Current Version | Previous Version | Graphics & Text | Print | Product List | Glossary On
Versions: 1 2 3 4 5 6 7 8 9 10 11 12 13 14 15 16 17 18 19 20 21 22 23 24 25 26 27 28 29 30 31 32 33 34 35 36 37 38 39 40 41 42 43 44 45 46 47 48 49 50
000
NZUS59 KLOT 231012
HRRLOT

CHICAGO AREA WEATHER ROUNDUP
NATIONAL WEATHER SERVICE CHICAGO/ROMEOVILLE IL
500 AM CDT SAT MAY 23 2015

NOTE: "FAIR" INDICATES FEW OR NO CLOUDS BELOW 12,000 FEET WITH NO
SIGNIFICANT WEATHER AND/OR OBSTRUCTIONS TO VISIBILITY.

* THESE STATIONS ARE NOT UNDER NWS QUALITY CONTROL. THEY ALSO MAY NOT
  REPORT WEATHER SUCH AS PRECIPITATION OR FOG.

ILZ005-006-012>014-019>023-231100-
NORTHEAST ILLINOIS

CITY           SKY/WX    TMP DP  RH WIND       PRES   REMARKS
OHARE          PTCLDY    50  37  61 S3        30.30R
MIDWAY         PTCLDY    56  33  42 S5        30.31R
AURORA         PTCLDY    45  36  70 N5        30.31R
LANSING*       CLEAR     48  38  69 CALM      30.32R
JOLIET*        PTCLDY    50  39  65 CALM      30.31R
WAUKEGAN       CLEAR     42  35  76 SE3       30.30R
DUPAGE AIRPORT PTCLDY    44  37  76 CALM      30.31R
WHEELING       PTCLDY    44  38  79 CALM      30.32R
KANKAKEE*      MOCLDY    51  40  66 CALM      30.32R
MORRIS*        PTCLDY    53  38  57 E5        30.28S
LEWIS AIRPORT* PTCLDY    51  35  53 SE3       30.31S
NORTHERLY IS     N/A     50  43  77 CALM        N/A
$$

WIZ051-052-058>065-066-070>072-231100-
SOUTHEAST WISCONSIN

CITY           SKY/WX    TMP DP  RH WIND       PRES   REMARKS
MILWAUKEE      PTCLDY    50  29  44 CALM      30.31R
KENOSHA*       CLEAR     43  33  68 CALM      30.30S
RACINE*        CLEAR     44  34  67 CALM      30.32R
BURLINGTON     CLEAR     38  35  89 CALM      30.31R
WAUKESHA         N/A     43  32  65 CALM      30.31S
WEST BEND      CLEAR     43  34  70 CALM      30.30S
$$

INZ001>003-010>013-019-020-231100-
NORTHWEST INDIANA

CITY           SKY/WX    TMP DP  RH WIND       PRES   REMARKS
GARY*          PTCLDY    52  37  58 SE6       30.32R
MICHIGAN CITY* NOT AVBL
RENSSELAER*    NOT AVBL
VALPARAISO     PTCLDY    47  37  68 E5        30.34R
$$

LMZ740>746-231100-
SOUTHERN LAKE MICHIGAN

STATION/POSITION TIME  SKY/WX   TEMP WIND        PRES    VSBY
                                AIR  DIR/SP/G
                 (UTC)          (F)  (DEG/KT/KT) (MB)    (MI)
HARRISON CRIB    0900            54  150/  9/ 11   N/A
BURNHAM HARBOR   1000            51   CALM  /  2   N/A
CALUMET HARBOR   0900            57  120/  6/ 10   N/A
BURNS HARBOR     0900            57  130/ 11/ 16 1026.4R
MICHIGAN CITY    0900            54  100/ 10/ 12   N/A
$$

ABBREVIATIONS USED IN REMARKS
   TC - TEMPERATURE IN CELSIUS
  WCI - WIND CHILL INDEX
   HX - HEAT INDEX
  VSB - VISIBILITY
$$


USA.gov is the U.S. government's official web portal to all federal, state and local government web resources and services.